Portada
METAR-TAF:

METAR-TAF

Aeroports :

Grayslake, Illinois, Estats Units d'Amèrica

latitud: 42-19-29N, longitud: 088-04-27W, altitud: 240 m

Observació

L'informe es va fer fa 25 minuts, a les 09:35 UTC
Vent calma
Temperatura 3°C
Humitat 100%
Pressió 1023 hPa
Visibilitat: 16.1 km
Cel clar

METAR: KMBO 220935Z AUTO 00000KT 10SM CLR 03/03 A3020 RMK AO2

Hora: 05:00 (10:00 UTC)


TAF: manca

Observacions i pronòstics meteorològics de més de 4000 aeroports (METAR i TAF).

Les estacions disponibles són els punts grocs i vermells al mapa.

Posi el ratolí al punt desitjat per veure el nom de l'estació.

Feu clic per veure les observacions i els pronòstics meteorològics.

Per canviar el mapa: feu clic els botons verds amb una creu de color negre per apropar; al botó verd amb un guió per allunyar la imatge; o en les fletxes verdes per a mapes adjacents.


METAR-TAF: